• In Deutschland
  • Länderverzeichnis
  • Für 7 Tage
  • Wassertemperatur
  • Satellitenkarten
  • Wetterkarte
  • Widgets
  • user-avatar
    Anmelden

    Stündliche Wetter Daverdisse

    Heute, 18 September, Dienstag

    Zeit Temperatur Niederschläge Wind Luftdruck Luftfeuchtigkeit
    00:00 +16°C° 0 mm 3 m/S 726 mmHg 62%
    01:00 +16°C° 0 mm 3 m/S 726 mmHg 65%
    02:00 +16°C° 0 mm 3 m/S 726 mmHg 68%
    03:00 +16°C° 0 mm 3 m/S 726 mmHg 72%
    04:00 +16°C° 0 mm 3 m/S 726 mmHg 73%
    05:00 +16°C° 0 mm 3 m/S 726 mmHg 74%
    06:00 +16°C° 0 mm 3 m/S 726 mmHg 76%
    07:00 +18°C° 0 mm 4 m/S 727 mmHg 72%
    08:00 +19°C° 0 mm 4 m/S 727 mmHg 68%
    09:00 +21°C° 0 mm 4 m/S 727 mmHg 64%
    10:00 +23°C° 0 mm 5 m/S 728 mmHg 60%
    11:00 +25°C° 0 mm 5 m/S 728 mmHg 56%
    12:00 +26°C° 0 mm 5 m/S 728 mmHg 53%
    13:00 +26°C° 0 mm 5 m/S 728 mmHg 53%
    14:00 +26°C° 0 mm 5 m/S 728 mmHg 53%
    15:00 +26°C° 0 mm 4 m/S 728 mmHg 53%
    16:00 +24°C° 0 mm 3 m/S 728 mmHg 60%
    17:00 +21°C° 0 mm 3 m/S 728 mmHg 68%
    18:00 +19°C° 0 mm 2 m/S 728 mmHg 75%
    19:00 +19°C° 0 mm 1 m/S 728 mmHg 79%
    20:00 +18°C° 0 mm 1 m/S 729 mmHg 82%
    21:00 +16°C° 0 mm 0 m/S 729 mmHg 86%
    22:00 +15°C° 0.2 mm 0 m/S 729 mmHg 87%
    23:00 +16°C° 0.2 mm 1 m/S 729 mmHg 88%

    Morgen, 19 September, Mittwoch

    Zeit Temperatur Niederschläge Wind Luftdruck Luftfeuchtigkeit
    00:00 +16°C° 0.2 mm 1 m/S 729 mmHg 89%
    01:00 +16°C° 0.2 mm 1 m/S 729 mmHg 90%
    02:00 +15°C° 0.2 mm 1 m/S 729 mmHg 91%
    03:00 +15°C° 0.2 mm 1 m/S 729 mmHg 91%
    04:00 +15°C° 0.1 mm 2 m/S 729 mmHg 92%
    05:00 +15°C° 0.1 mm 2 m/S 729 mmHg 92%
    06:00 +15°C° 0.1 mm 2 m/S 729 mmHg 92%
    07:00 +17°C° 0 mm 3 m/S 730 mmHg 85%
    08:00 +19°C° 0 mm 3 m/S 730 mmHg 79%
    09:00 +21°C° 0 mm 4 m/S 730 mmHg 72%
    10:00 +22°C° 0 mm 4 m/S 730 mmHg 67%
    11:00 +23°C° 0 mm 5 m/S 730 mmHg 63%
    12:00 +25°C° 0 mm 5 m/S 730 mmHg 58%
    13:00 +25°C° 0 mm 5 m/S 730 mmHg 57%
    14:00 +25°C° 0 mm 5 m/S 730 mmHg 56%
    15:00 +25°C° 0 mm 5 m/S 730 mmHg 55%
    16:00 +22°C° 0 mm 4 m/S 730 mmHg 61%
    17:00 +20°C° 0 mm 3 m/S 730 mmHg 67%
    18:00 +18°C° 0 mm 2 m/S 730 mmHg 74%
    19:00 +17°C° 0 mm 2 m/S 730 mmHg 77%
    20:00 +16°C° 0 mm 2 m/S 730 mmHg 81%
    21:00 +15°C° 0 mm 2 m/S 731 mmHg 85%
    22:00 +15°C° 0 mm 2 m/S 730 mmHg 86%
    23:00 +14°C° 0 mm 2 m/S 730 mmHg 88%

    übermorgen, 20 September, Donnerstag

    Zeit Temperatur Niederschläge Wind Luftdruck Luftfeuchtigkeit
    00:00 +14°C° 0 mm 2 m/S 730 mmHg 90%
    01:00 +13°C° 0 mm 2 m/S 730 mmHg 91%
    02:00 +13°C° 0 mm 2 m/S 730 mmHg 92%
    03:00 +13°C° 0 mm 2 m/S 730 mmHg 92%
    04:00 +13°C° 0 mm 2 m/S 730 mmHg 93%
    05:00 +13°C° 0 mm 2 m/S 730 mmHg 93%
    06:00 +13°C° 0 mm 2 m/S 730 mmHg 93%
    07:00 +14°C° 0 mm 3 m/S 730 mmHg 85%
    08:00 +17°C° 0 mm 4 m/S 730 mmHg 77%
    09:00 +19°C° 0 mm 5 m/S 730 mmHg 70%
    10:00 +20°C° 0 mm 5 m/S 730 mmHg 65%
    11:00 +22°C° 0 mm 5 m/S 730 mmHg 60%
    12:00 +23°C° 0 mm 5 m/S 729 mmHg 55%
    13:00 +23°C° 0 mm 5 m/S 729 mmHg 54%
    14:00 +23°C° 0 mm 5 m/S 728 mmHg 54%
    15:00 +25°C° 0 mm 4 m/S 727 mmHg 53%
    16:00 +22°C° 0 mm 4 m/S 727 mmHg 58%
    17:00 +21°C° 0 mm 3 m/S 726 mmHg 63%
    18:00 +19°C° 0 mm 3 m/S 726 mmHg 68%
    19:00 +19°C° 0 mm 3 m/S 725 mmHg 67%
    20:00 +19°C° 0 mm 3 m/S 725 mmHg 66%
    21:00 +18°C° 0 mm 4 m/S 725 mmHg 65%
    22:00 +18°C° 0 mm 4 m/S 724 mmHg 64%
    23:00 +18°C° 0 mm 4 m/S 724 mmHg 62%

    21 September, Freitag

    Zeit Temperatur Niederschläge Wind Luftdruck Luftfeuchtigkeit
    00:00 +18°C° 0 mm 4 m/S 724 mmHg 60%
    01:00 +17°C° 0 mm 5 m/S 723 mmHg 61%
    02:00 +17°C° 0 mm 5 m/S 723 mmHg 62%
    03:00 +17°C° 0 mm 5 m/S 722 mmHg 63%
    04:00 +17°C° 0.5 mm 6 m/S 722 mmHg 71%
    05:00 +16°C° 0.5 mm 6 m/S 722 mmHg 79%
    06:00 +15°C° 0.5 mm 6 m/S 722 mmHg 87%
    07:00 +14°C° 1.6 mm 6 m/S 723 mmHg 89%
    08:00 +13°C° 1.6 mm 5 m/S 723 mmHg 90%
    09:00 +13°C° 1.6 mm 4 m/S 723 mmHg 91%
    10:00 +12°C° 0.7 mm 4 m/S 724 mmHg 88%
    11:00 +12°C° 0.7 mm 4 m/S 724 mmHg 85%
    12:00 +11°C° 0.7 mm 4 m/S 725 mmHg 82%
    13:00 +12°C° 0.1 mm 5 m/S 725 mmHg 74%
    14:00 +13°C° 0.1 mm 6 m/S 726 mmHg 66%
    15:00 +13°C° 0.1 mm 6 m/S 726 mmHg 58%
    16:00 +11°C° 0 mm 6 m/S 727 mmHg 58%
    17:00 +10°C° 0 mm 5 m/S 728 mmHg 59%
    18:00 +10°C° 0 mm 4 m/S 729 mmHg 59%
    19:00 +8°C° 0 mm 4 m/S 729 mmHg 63%
    20:00 +7°C° 0 mm 4 m/S 730 mmHg 67%
    21:00 +7°C° 0 mm 4 m/S 731 mmHg 70%
    22:00 +7°C° 0 mm 3 m/S 731 mmHg 73%
    23:00 +7°C° 0 mm 3 m/S 732 mmHg 77%

    22 September, Samstag

    Zeit Temperatur Niederschläge Wind Luftdruck Luftfeuchtigkeit
    00:00 +5°C° 0 mm 3 m/S 732 mmHg 80%
    01:00 +5°C° 0 mm 3 m/S 733 mmHg 83%
    02:00 +6°C° 0 mm 2 m/S 733 mmHg 85%
    03:00 +5°C° 0 mm 2 m/S 733 mmHg 88%
    04:00 +5°C° 0 mm 2 m/S 733 mmHg 88%
    05:00 +5°C° 0 mm 2 m/S 734 mmHg 89%
    06:00 +5°C° 0 mm 2 m/S 734 mmHg 89%
    07:00 +7°C° 0 mm 2 m/S 734 mmHg 81%
    08:00 +9°C° 0 mm 3 m/S 734 mmHg 73%
    09:00 +12°C° 0 mm 4 m/S 735 mmHg 64%
    10:00 +13°C° 0.1 mm 4 m/S 735 mmHg 62%
    11:00 +13°C° 0.1 mm 4 m/S 735 mmHg 59%
    12:00 +14°C° 0.1 mm 4 m/S 735 mmHg 56%
    13:00 +14°C° 0.1 mm 4 m/S 734 mmHg 56%
    14:00 +15°C° 0.1 mm 4 m/S 734 mmHg 56%
    15:00 +15°C° 0.1 mm 4 m/S 734 mmHg 56%
    16:00 +13°C° 0.1 mm 3 m/S 734 mmHg 62%
    17:00 +13°C° 0.1 mm 2 m/S 733 mmHg 69%
    18:00 +11°C° 0.1 mm 1 m/S 733 mmHg 75%
    19:00 +10°C° 0 mm 2 m/S 733 mmHg 74%
    20:00 +10°C° 0 mm 2 m/S 733 mmHg 74%
    21:00 +10°C° 0 mm 2 m/S 733 mmHg 73%
    22:00 +9°C° 0.2 mm 2 m/S 733 mmHg 75%
    23:00 +9°C° 0.2 mm 3 m/S 732 mmHg 77%

    23 September, Sonntag

    Zeit Temperatur Niederschläge Wind Luftdruck Luftfeuchtigkeit
    00:00 +9°C° 0.2 mm 3 m/S 732 mmHg 79%
    01:00 +8°C° 0.2 mm 4 m/S 731 mmHg 78%
    02:00 +8°C° 0.2 mm 4 m/S 730 mmHg 77%
    03:00 +9°C° 0.2 mm 5 m/S 729 mmHg 77%
    04:00 +9°C° 0.3 mm 5 m/S 729 mmHg 75%
    05:00 +9°C° 0.3 mm 6 m/S 728 mmHg 74%
    06:00 +9°C° 0.3 mm 6 m/S 727 mmHg 73%
    07:00 +10°C° 0 mm 6 m/S 727 mmHg 72%
    08:00 +11°C° 0 mm 7 m/S 726 mmHg 71%
    09:00 +12°C° 0 mm 7 m/S 726 mmHg 70%
    10:00 +15°C° 0.1 mm 8 m/S 725 mmHg 73%
    11:00 +16°C° 0.1 mm 9 m/S 724 mmHg 76%
    12:00 +17°C° 0.1 mm 9 m/S 723 mmHg 79%
    13:00 +17°C° 0.5 mm 10 m/S 722 mmHg 81%
    14:00 +17°C° 0.5 mm 10 m/S 721 mmHg 82%
    15:00 +17°C° 0.5 mm 11 m/S 720 mmHg 83%
    16:00 +14°C° 0.3 mm 10 m/S 720 mmHg 80%
    17:00 +12°C° 0.3 mm 10 m/S 720 mmHg 77%
    18:00 +11°C° 0.3 mm 10 m/S 720 mmHg 74%
    19:00 +9°C° 0.2 mm 10 m/S 720 mmHg 74%
    20:00 +8°C° 0.2 mm 10 m/S 721 mmHg 73%
    21:00 +8°C° 0.2 mm 10 m/S 722 mmHg 73%
    22:00 +7°C° 0.1 mm 10 m/S 722 mmHg 70%
    23:00 +7°C° 0.1 mm 10 m/S 723 mmHg 66%
    Mehr zeigen